This is the latest recevied weather packets stored in our database for station/object W9ESR. If no packets are shown the sender has not sent any weather packets the latest 1 day(s).
| Time | Temp. | Humidity | Pressure | Rain* | Wind** | Luminosity | Snow |
|---|---|---|---|---|---|---|---|
| 1778007522 | 12.78° C | 40% | - | 0 mm | 4.92 m/s, 19° | - | - |
| 1778007219 | 12.78° C | 41% | - | 0 mm | 5.36 m/s, 3° | - | - |
| 1778006915 | 13.33° C | 43% | - | 0 mm | 2.24 m/s, 335° | - | - |
| 1778006612 | 12.78° C | 43% | - | 0 mm | 1.79 m/s, 320° | - | - |
| 1778006309 | 12.22° C | 42% | - | 0 mm | 3.58 m/s, 340° | - | - |
| 1778006006 | 12.22° C | 42% | - | 0 mm | 5.81 m/s, 348° | - | - |
| 1778005703 | 12.22° C | 42% | - | 0 mm | 3.13 m/s, 7° | - | - |
| 1778005400 | 12.22° C | 42% | - | 0 mm | 2.68 m/s, 313° | - | - |
| 1778005096 | 12.22° C | 42% | - | 0 mm | 5.81 m/s, 9° | - | - |
| 1778004794 | 12.22° C | 41% | - | 0 mm | 4.92 m/s, 334° | - | - |
| 1778004490 | 12.22° C | 42% | - | 0 mm | 1.79 m/s, 256° | - | - |
| 1778004187 | 12.22° C | 41% | - | 0 mm | 3.13 m/s, 328° | - | - |
| 1778003883 | 12.22° C | 42% | - | 0 mm | 4.92 m/s, 338° | - | - |
| 1778003580 | 12.22° C | 42% | - | 0 mm | 4.02 m/s, 354° | - | - |
| 1778003276 | 11.67° C | 41% | - | 0 mm | 4.02 m/s, 330° | - | - |
| 1778002973 | 11.67° C | 42% | - | 0 mm | 3.13 m/s, 304° | - | - |
| 1778002669 | 12.22° C | 42% | - | 0 mm | 3.13 m/s, 333° | - | - |
| 1778002366 | 11.67° C | 41% | - | 0 mm | 4.02 m/s, 22° | - | - |
| 1778002063 | 11.67° C | 40% | - | 0 mm | 4.02 m/s, 325° | - | - |
| 1778001760 | 11.67° C | 43% | - | 0 mm | 3.58 m/s, 337° | - | - |
| 1778001460 | 11.67° C | 44% | - | 0 mm | 4.47 m/s, 0° | - | - |
| 1778001157 | 11.67° C | 44% | - | 0 mm | 4.92 m/s, 347° | - | - |
| 1778000854 | 11.67° C | 44% | - | 0 mm | 2.68 m/s, 11° | - | - |
| 1778000551 | 11.11° C | 47% | - | 0 mm | 1.79 m/s, 294° | - | - |
| 1778000246 | 11.67° C | 48% | - | 0 mm | 4.02 m/s, 343° | - | - |
* Rain latest hour (hover to see other rain measurements)
** Current wind speed in m/s (hover to see current wind gust speed)